SCP
0 0 0 0 0 0 0 0 0 0 0 0 0 0 0 0 0 0 0 0 0 0 0 0 0 0 0 0 -0 0 -0 0 0 0 0 0 0 0 0 0 0 0 0 0 0
0 0 0 0 0 0 0 0 0 0 0 0 0 0 0 0 0 0 0 0 0 0 0 0 0 0 0 0 0 -0 0 0 0 0 0 0 0 0 0 0 0 0 0 0 0
0 0 0 0 0 0 0 0 0 0 0 0 0 0 0 0 0 0 0 0 0 0 0 0 0 0 0 0 0 0 0 0 0 0 0 0 0 0 0 0 0 0 0 0 0
0 0 0 0 0 0 0 0 0 0 0 0 0 0 0 0 0 0 0 0 0 0 0 0 0 0 0 0 0 0 -0 0 0 0 0 0 0 0 0 0 0 0 0 0 0
0 0 0 0 0 0 0 0 0 0 0 0 0 0 0 0 0 0 0 0 0 0 0 0 0 0 0 0 0 -0 0 0 0 0 0 0 0 0 0 0 0 0 0 0 0
0 0 0 0 0 0 0 0 0 0 0 0 0 0 0 0 0 0 0 0 0 0 0 0 0 0 0 0 0 -0 -0 0 0 0 0 0 0 0 0 0 0 0 0 0 0
0 0 0 0 0 0 0 0 0 0 0 0 0 0 0 0 0 0 0 0 0 0 0 0 0 0 0 0 0 -0 -0 0 0 0 0 0 0 0 0 0 0 0 0 0 0
0 0 0 0 0 0 0 0 0 0 0 0 0 0 0 0 0 0 0 0 0 0 0 0 0 0 0 0 0 0 0 0 0 0 0 0 0 0 0 0 0 0 0 0 0
0 0 0 0 0 0 0 0 0 0 0 0 0 0 0 0 0 0 0 0 0 0 0 0 0 0 0 0 0 0 0 0 0 0 0 0 0 0 0 0 0 0 0 0 0
0 0 0 0 0 0 0 0 0 0 0 0 0 0 0 0 0 0 0 0 0 0 0 0 0 0 0 0 0 0 0 0 0 0 0 0 0 0 0 0 0 0 0 0 0
0 0 0 0 0 0 0 0 0 0 0 0 0 0 0 0 0 0 0 0 0 0 0 0 0 0 0 0 0 0 0 0 0 0 0 0 0 0 0 0 0 0 0 0 0
0 0 0 0 0 0 0 0 0 0 0 0 0 0 0 0 0 0 0 0 0 0 0 0 0 0 0 0 0 0 0 0 0 0 0 0 0 0 0 0 0 0 0 0 0
0 0 0 0 0 0 0 0 0 0 0 0 0 0 0 0 0 0 0 0 0 0 0 0 0 0 0 0 0 0 0 0 0 0 0 0 0 0 0 0 0 0 0 0 0
0 0 0 0 0 0 0 0 0 0 0 0 0 0 0 0 0 0 0 0 0 0 0 0 0 0 0 0 0 0 0 0 0 0 0 0 0 0 0 0 0 0 0 0 0
-0 0 0 0 0 0 0 0 0 0 0 0 0 0 0 0 0 0 0 0 0 0 0 0 0 0 0 0 0 0 0 0 0 0 0 0 0 0 0 0 0 0 0 0 0
0 0 0 0 0 0 0 0 0 0 0 0 0 0 0 0 0 0 0 0 0 0 0 0 0 0 0 0 0 0 0 0 0 0 0 0 0 0 0 0 0 0 0 0 0
0 0 0 0 0 0 0 0 0 0 0 0 0 0 0 0 0 0 0 0 0 0 0 0 0 0 0 0 0 0 0 0 0 0 0 0 0 0 0 0 0 0 0 0 0
0 0 0 0 0 0 0 0 0 0 0 0 0 0 0 0 0 0 0 0 0 0 0 0 0 0 0 0 0 0 0 0 0 0 0 0 0 0 0 0 0 0 0 0 0
0 0 0 0 0 0 0 0 0 0 0 0 0 0 0 0 0 0 0 0 0 0 0 0 0 0 0 0 0 0 0 0 0 0 0 0 0 0 0 0 0 0 0 0 0
0 0 0 0 0 0 0 0 0 0 0 0 0 0 0 0 0 0 0 0 0 0 0 0 0 0 0 0 0 0 0 0 0 0 0 0 0 0 0 0 0 0 0 0 0
0 0 0 0 0 0 0 0 0 0 0 0 0 0 0 0 0 0 0 0 0 0 0 0 0 0 0 0 0 0 0 0 0 0 0 0 0 0 0 0 0 0 0 0 0
0 0 0 0 0 0 0 0 0 0 0 0 0 0 0 0 0 0 0 0 0 0 0 0 0 0 0 0 0 0 0 0 0 0 0 0 0 0 0 0 0 0 0 0 0
0 0 0 0 0 0 0 0 0 0 0 0 0 0 0 0 0 0 0 0 0 0 0 0 0 0 0 0 0 0 0 0 0 0 0 0 0 0 0 0 0 0 0 0 0
0 0 0 0 0 0 0 0 0 0 0 0 0 0 0 0 0 0 0 0 0 0 0 0 0 0 0 0 0 0 0 0 0 0 0 0 0 0 0 0 0 0 0 0 0
0 0 0 0 0 0 0 0 0 0 0 0 -0 0 0 0 0 0 0 0 0 0 0 0 0 0 0 0 0 0 0 0 0 0 0 0 0 0 0 0 0 0 0 0 0
0 0 0 0 0 0 0 0 0 0 0 0 -0 -0 -0 0 0 0 0 0 0 0 0 0 0 0 0 0 0 0 0 0 0 0 0 0 0 0 0 0 0 0 0 0 0
0 0 0 0 0 0 0 0 0 0 0 0 0 -0 -0 -0 -0 0 0 0 0 0 0 0 0 0 0 0 0 0 0 0 0 0 0 0 0 0 0 0 0 0 0 0 0
Wind_Speed_500mb
17 15 14 16 18 18 17 20 23 25 25 22 18 16 15 12 12 13 11 16 25 25 24 13 11 17 22 28 21 23 10 8 16 17 12 36 11 15 16 26 16 15 55 53 38
19 19 16 17 19 21 17 18 23 25 27 24 19 14 13 9 14 14 13 15 22 25 21 13 17 21 17 12 11 13 9 16 15 16 16 19 14 23 16 39 46 68 55 41 32
21 21 20 18 21 21 20 18 20 25 27 26 21 14 9 10 7 10 16 16 22 22 17 13 19 27 19 17 15 10 9 13 9 38 49 22 23 12 52 9 34 66 53 40 27
24 22 22 22 21 22 23 20 19 23 26 27 23 14 7 6 4 7 16 19 20 18 14 8 18 12 13 11 8 16 25 16 36 40 37 17 41 14 19 18 51 54 49 39 25
27 25 24 24 23 25 24 22 20 21 24 26 24 17 6 7 9 7 15 23 16 11 15 12 33 18 12 16 32 21 12 26 48 45 35 40 24 16 33 51 54 51 42 33 23
29 29 25 25 26 26 26 25 22 21 22 24 24 18 9 5 6 9 13 18 11 12 24 12 16 47 34 19 16 35 47 38 41 31 37 32 44 12 34 56 55 46 37 28 18
31 31 29 26 28 27 27 27 26 21 22 22 22 19 15 18 11 13 16 15 8 8 15 11 12 5 24 17 35 52 28 19 16 13 14 48 3 12 60 58 55 45 37 30 21
33 31 32 29 28 29 27 29 27 24 21 21 19 18 14 13 15 14 10 8 4 4 8 8 24 33 19 59 13 12 11 10 7 14 29 3 7 21 53 59 52 46 39 33 26
34 32 31 31 28 29 29 27 25 26 18 17 16 11 12 8 11 7 11 7 10 3 11 22 12 28 29 22 11 4 8 5 5 26 12 6 5 36 54 56 52 49 43 36 28
31 33 29 31 28 28 28 24 18 20 13 11 14 9 11 4 6 4 8 7 4 10 15 11 14 9 4 7 10 14 8 8 17 20 13 12 14 37 53 54 49 52 44 36 27
29 31 29 29 25 23 23 9 5 7 11 10 3 9 8 5 6 7 6 3 5 6 5 7 10 15 32 13 7 12 10 14 8 11 14 21 13 36 48 43 44 50 46 40 31
30 28 28 25 22 16 16 9 15 8 18 17 30 32 26 20 7 10 5 6 6 5 3 11 7 16 13 6 8 7 7 6 7 7 16 13 12 15 36 31 54 60 52 46 37
30 26 25 21 19 14 4 6 5 7 7 16 22 28 23 10 7 8 6 7 6 7 4 10 3 18 13 6 9 4 9 8 8 8 6 10 5 11 13 15 40 48 51 44 39
30 25 23 17 13 13 6 4 4 4 8 12 11 16 26 11 8 18 11 6 5 10 12 5 6 11 10 6 9 6 10 12 17 9 7 5 9 10 14 20 32 47 53 51 43
30 26 23 18 5 7 5 8 4 3 3 7 6 6 21 17 2 6 14 7 11 9 9 8 7 9 6 5 6 3 9 10 7 8 3 5 4 11 15 21 24 40 59 55 45
32 30 26 22 20 11 6 7 4 10 12 7 4 6 10 6 4 6 5 7 10 9 10 4 4 5 8 9 7 13 13 16 10 6 4 10 13 9 10 20 16 34 59 60 50
34 33 31 25 16 18 7 6 7 8 5 6 8 6 6 9 6 6 6 6 10 9 4 6 5 4 10 13 7 12 11 4 5 4 11 4 7 13 8 8 21 45 61 63 53
32 35 34 30 19 16 11 8 8 9 13 2 7 5 14 10 7 7 7 5 2 9 7 11 4 12 4 7 12 8 12 10 10 7 8 2 11 8 4 19 23 46 62 62 53
30 30 29 29 25 16 14 7 17 12 8 5 6 9 5 5 9 7 11 9 13 13 12 10 6 5 2 5 9 8 7 7 11 4 3 6 10 2 7 14 28 41 56 57 52
27 22 30 24 26 17 3 8 7 6 12 10 12 7 17 11 11 14 15 6 10 14 4 12 7 2 1 5 9 4 11 7 5 4 8 7 9 9 8 12 14 28 47 57 49
27 10 6 26 23 12 7 8 8 4 18 6 6 4 9 13 15 11 8 2 6 8 10 9 8 3 4 8 14 3 2 10 8 7 7 4 11 9 12 19 26 34 51 58 50
23 1 9 33 11 2 7 4 11 11 18 11 8 7 6 10 14 13 20 8 9 18 14 4 10 7 7 4 5 7 11 11 9 8 3 6 12 1 10 20 36 40 53 51 45
13 4 9 42 7 2 4 2 6 10 9 13 9 14 8 8 9 8 8 4 6 11 17 13 3 7 10 10 3 7 9 8 11 6 12 9 11 2 7 12 32 48 50 52 46
15 2 4 19 3 11 7 3 3 8 13 9 12 14 8 12 9 6 4 2 2 5 12 12 7 11 14 9 7 9 10 9 11 7 9 11 10 10 7 11 24 39 50 55 48
11 6 8 7 8 4 9 10 12 7 8 8 4 4 10 11 11 2 5 1 4 12 5 9 10 6 4 3 4 6 10 14 13 9 11 7 11 11 9 15 33 40 49 52 47
9 4 6 3 14 15 7 9 11 3 8 14 15 7 9 13 14 21 10 9 11 5 5 5 5 5 4 9 9 3 6 11 5 6 10 3 10 2 5 23 32 42 53 52 46
23 10 2 5 6 10 10 12 12 5 18 13 7 1 6 12 16 33 33 11 6 13 11 12 13 8 6 4 7 10 12 12 7 5 8 7 7 6 4 14 34 45 51 49 41
Wind_Direction_500mb
275 288 297 305 317 321 337 333 332 330 332 339 340 329 323 311 329 348 32 16 3 8 21 57 77 118 108 86 101 113 75 145 170 157 155 132 124 75 102 130 60 116 139 141 137
269 280 288 295 306 312 327 330 329 327 328 333 338 328 322 307 337 23 24 4 357 10 22 59 96 138 85 77 55 73 102 169 174 155 142 127 113 123 108 107 94 109 125 141 142
266 273 282 289 299 305 316 321 326 326 326 331 333 329 316 314 317 11 10 357 354 5 14 39 123 94 71 56 28 45 131 142 99 134 132 111 105 118 125 80 140 139 145 146 147
266 270 277 285 292 298 306 310 320 324 326 328 330 329 300 301 223 342 6 359 1 9 352 27 139 77 66 61 50 91 49 100 126 124 121 112 124 97 112 139 154 147 152 154 150
266 268 274 279 287 292 299 303 310 318 322 324 328 331 281 253 264 308 354 4 359 16 29 97 121 99 88 106 72 81 92 82 124 124 107 132 101 123 117 146 155 155 156 149 133
266 268 271 277 282 288 295 299 302 311 315 317 322 323 299 261 255 291 324 351 3 39 34 163 127 113 85 50 53 103 96 101 113 105 123 117 127 109 148 156 157 159 154 141 130
265 269 271 276 280 285 291 297 297 300 303 306 312 314 278 236 239 292 296 328 358 35 88 73 72 209 108 99 110 106 92 70 92 114 110 123 173 154 158 164 160 161 155 148 143
260 267 272 275 280 286 291 296 295 293 291 296 298 300 263 229 242 294 290 313 267 11 107 54 126 101 104 116 77 90 65 108 243 166 168 44 252 157 168 169 165 164 160 156 150
256 263 271 276 281 289 293 296 299 286 282 285 282 274 272 247 236 292 320 323 217 172 123 135 107 101 116 104 70 344 149 152 173 211 143 194 252 176 180 178 169 172 167 164 159
257 260 270 275 282 294 303 301 300 284 267 270 249 278 259 192 214 259 300 300 161 160 129 132 95 100 59 98 177 180 178 178 185 205 189 174 246 177 186 183 179 177 172 169 167
260 258 265 277 284 305 320 335 287 265 258 245 238 254 290 316 226 219 254 222 156 121 109 52 100 174 184 176 128 139 154 178 205 201 153 195 195 186 186 184 184 183 179 173 177
253 257 260 274 282 302 345 55 50 315 311 255 249 258 257 302 289 228 232 184 134 134 75 33 185 216 154 113 87 107 134 183 89 125 178 164 214 188 190 201 192 186 183 181 184
246 252 253 267 277 291 326 98 43 330 267 285 234 241 236 236 248 238 205 153 117 124 149 148 251 135 129 116 116 158 181 175 148 127 84 121 310 180 201 193 192 198 194 191 199
236 242 244 258 276 265 233 236 136 347 39 273 224 226 214 214 264 218 201 179 59 157 142 142 127 128 110 150 134 191 174 126 127 113 218 126 273 249 198 192 183 185 193 195 197
223 227 230 226 226 229 237 226 185 164 354 263 210 200 182 169 153 177 184 176 157 141 119 222 133 122 116 184 155 116 89 113 123 102 88 194 357 262 153 214 202 181 194 197 201
214 214 216 223 225 232 236 220 217 50 244 323 208 160 113 158 163 118 167 137 117 91 45 78 71 94 134 66 82 146 63 39 49 80 315 231 168 255 192 237 188 182 193 196 198
210 209 206 209 208 229 194 180 49 163 274 234 204 165 148 159 175 146 169 166 155 111 150 34 346 352 122 86 48 73 76 333 342 353 229 78 124 259 258 270 188 182 187 195 198
209 209 205 203 193 210 192 63 203 221 228 270 128 66 177 159 200 144 125 195 268 90 122 150 258 168 174 166 171 165 156 162 226 212 263 279 238 262 308 300 205 186 184 189 190
204 207 221 194 195 201 187 170 201 202 262 213 80 127 233 230 158 134 184 207 212 176 147 147 249 46 84 128 130 182 187 178 107 34 44 262 288 170 42 45 124 153 181 183 187
194 197 225 197 200 204 133 232 210 294 338 345 205 162 183 205 164 166 179 204 195 184 148 196 100 19 81 93 38 157 154 76 15 228 265 284 278 255 259 200 162 170 172 184 185
177 184 241 195 190 200 197 223 279 309 6 327 315 277 217 183 177 192 203 208 170 121 101 136 105 265 121 203 180 120 143 56 115 137 189 299 267 203 234 198 195 185 183 187 186
177 163 192 179 160 191 161 199 345 343 18 336 338 321 247 205 180 209 205 225 171 149 151 140 118 150 208 284 200 186 182 150 134 211 107 149 271 135 275 221 192 178 188 188 191
174 225 192 180 179 179 246 338 322 342 6 18 339 49 327 297 293 188 163 6 199 163 161 182 89 85 357 348 323 210 183 121 108 96 187 142 263 112 12 169 191 170 186 185 187
167 163 156 202 135 151 117 219 274 323 283 236 256 302 345 350 23 276 156 344 136 133 145 121 120 159 193 204 154 190 172 157 132 137 177 226 287 279 222 182 156 176 185 184 185
193 211 161 179 207 160 168 194 175 226 261 247 301 157 23 323 319 298 315 234 38 154 99 126 151 132 38 341 177 177 167 172 186 169 170 229 217 271 274 196 180 184 180 182 184
176 149 175 128 195 154 168 208 216 184 218 280 284 287 274 237 219 271 197 235 193 172 119 13 153 106 40 1 24 283 243 188 186 169 259 256 288 21 44 146 163 182 182 187 188
204 188 183 20 104 119 214 199 204 206 289 249 296 270 270 269 292 278 237 219 219 155 150 133 137 118 208 352 12 316 233 185 168 145 151 193 235 134 118 164 178 186 191 194 192
Wind_Speed_850mb
17 15 14 16 18 18 17 20 23 25 25 22 18 16 15 12 12 13 11 16 25 25 24 13 11 17 22 28 21 23 10 8 16 17 12 36 11 15 16 26 16 15 55 53 38
19 19 16 17 19 21 17 18 23 25 27 24 19 14 13 9 14 14 13 15 22 25 21 13 17 21 17 12 11 13 9 16 15 16 16 19 14 23 16 39 46 68 55 41 32
21 21 20 18 21 21 20 18 20 25 27 26 21 14 9 10 7 10 16 16 22 22 17 13 19 27 19 17 15 10 9 13 9 38 49 22 23 12 52 9 34 66 53 40 27
24 22 22 22 21 22 23 20 19 23 26 27 23 14 7 6 4 7 16 19 20 18 14 8 18 12 13 11 8 16 25 16 36 40 37 17 41 14 19 18 51 54 49 39 25
27 25 24 24 23 25 24 22 20 21 24 26 24 17 6 7 9 7 15 23 16 11 15 12 33 18 12 16 32 21 12 26 48 45 35 40 24 16 33 51 54 51 42 33 23
29 29 25 25 26 26 26 25 22 21 22 24 24 18 9 5 6 9 13 18 11 12 24 12 16 47 34 19 16 35 47 38 41 31 37 32 44 12 34 56 55 46 37 28 18
31 31 29 26 28 27 27 27 26 21 22 22 22 19 15 18 11 13 16 15 8 8 15 11 12 5 24 17 35 52 28 19 16 13 14 48 3 12 60 58 55 45 37 30 21
33 31 32 29 28 29 27 29 27 24 21 21 19 18 14 13 15 14 10 8 4 4 8 8 24 33 19 59 13 12 11 10 7 14 29 3 7 21 53 59 52 46 39 33 26
34 32 31 31 28 29 29 27 25 26 18 17 16 11 12 8 11 7 11 7 10 3 11 22 12 28 29 22 11 4 8 5 5 26 12 6 5 36 54 56 52 49 43 36 28
31 33 29 31 28 28 28 24 18 20 13 11 14 9 11 4 6 4 8 7 4 10 15 11 14 9 4 7 10 14 8 8 17 20 13 12 14 37 53 54 49 52 44 36 27
29 31 29 29 25 23 23 9 5 7 11 10 3 9 8 5 6 7 6 3 5 6 5 7 10 15 32 13 7 12 10 14 8 11 14 21 13 36 48 43 44 50 46 40 31
30 28 28 25 22 16 16 9 15 8 18 17 30 32 26 20 7 10 5 6 6 5 3 11 7 16 13 6 8 7 7 6 7 7 16 13 12 15 36 31 54 60 52 46 37
30 26 25 21 19 14 4 6 5 7 7 16 22 28 23 10 7 8 6 7 6 7 4 10 3 18 13 6 9 4 9 8 8 8 6 10 5 11 13 15 40 48 51 44 39
30 25 23 17 13 13 6 4 4 4 8 12 11 16 26 11 8 18 11 6 5 10 12 5 6 11 10 6 9 6 10 12 17 9 7 5 9 10 14 20 32 47 53 51 43
30 26 23 18 5 7 5 8 4 3 3 7 6 6 21 17 2 6 14 7 11 9 9 8 7 9 6 5 6 3 9 10 7 8 3 5 4 11 15 21 24 40 59 55 45
32 30 26 22 20 11 6 7 4 10 12 7 4 6 10 6 4 6 5 7 10 9 10 4 4 5 8 9 7 13 13 16 10 6 4 10 13 9 10 20 16 34 59 60 50
34 33 31 25 16 18 7 6 7 8 5 6 8 6 6 9 6 6 6 6 10 9 4 6 5 4 10 13 7 12 11 4 5 4 11 4 7 13 8 8 21 45 61 63 53
32 35 34 30 19 16 11 8 8 9 13 2 7 5 14 10 7 7 7 5 2 9 7 11 4 12 4 7 12 8 12 10 10 7 8 2 11 8 4 19 23 46 62 62 53
30 30 29 29 25 16 14 7 17 12 8 5 6 9 5 5 9 7 11 9 13 13 12 10 6 5 2 5 9 8 7 7 11 4 3 6 10 2 7 14 28 41 56 57 52
27 22 30 24 26 17 3 8 7 6 12 10 12 7 17 11 11 14 15 6 10 14 4 12 7 2 1 5 9 4 11 7 5 4 8 7 9 9 8 12 14 28 47 57 49
27 10 6 26 23 12 7 8 8 4 18 6 6 4 9 13 15 11 8 2 6 8 10 9 8 3 4 8 14 3 2 10 8 7 7 4 11 9 12 19 26 34 51 58 50
23 1 9 33 11 2 7 4 11 11 18 11 8 7 6 10 14 13 20 8 9 18 14 4 10 7 7 4 5 7 11 11 9 8 3 6 12 1 10 20 36 40 53 51 45
13 4 9 42 7 2 4 2 6 10 9 13 9 14 8 8 9 8 8 4 6 11 17 13 3 7 10 10 3 7 9 8 11 6 12 9 11 2 7 12 32 48 50 52 46
15 2 4 19 3 11 7 3 3 8 13 9 12 14 8 12 9 6 4 2 2 5 12 12 7 11 14 9 7 9 10 9 11 7 9 11 10 10 7 11 24 39 50 55 48
11 6 8 7 8 4 9 10 12 7 8 8 4 4 10 11 11 2 5 1 4 12 5 9 10 6 4 3 4 6 10 14 13 9 11 7 11 11 9 15 33 40 49 52 47
9 4 6 3 14 15 7 9 11 3 8 14 15 7 9 13 14 21 10 9 11 5 5 5 5 5 4 9 9 3 6 11 5 6 10 3 10 2 5 23 32 42 53 52 46
23 10 2 5 6 10 10 12 12 5 18 13 7 1 6 12 16 33 33 11 6 13 11 12 13 8 6 4 7 10 12 12 7 5 8 7 7 6 4 14 34 45 51 49 41
Wind_Direction_850mb
275 288 297 305 317 321 337 333 332 330 332 339 340 329 323 311 329 348 32 16 3 8 21 57 77 118 108 86 101 113 75 145 170 157 155 132 124 75 102 130 60 116 139 141 137
269 280 288 295 306 312 327 330 329 327 328 333 338 328 322 307 337 23 24 4 357 10 22 59 96 138 85 77 55 73 102 169 174 155 142 127 113 123 108 107 94 109 125 141 142
266 273 282 289 299 305 316 321 326 326 326 331 333 329 316 314 317 11 10 357 354 5 14 39 123 94 71 56 28 45 131 142 99 134 132 111 105 118 125 80 140 139 145 146 147
266 270 277 285 292 298 306 310 320 324 326 328 330 329 300 301 223 342 6 359 1 9 352 27 139 77 66 61 50 91 49 100 126 124 121 112 124 97 112 139 154 147 152 154 150
266 268 274 279 287 292 299 303 310 318 322 324 328 331 281 253 264 308 354 4 359 16 29 97 121 99 88 106 72 81 92 82 124 124 107 132 101 123 117 146 155 155 156 149 133
266 268 271 277 282 288 295 299 302 311 315 317 322 323 299 261 255 291 324 351 3 39 34 163 127 113 85 50 53 103 96 101 113 105 123 117 127 109 148 156 157 159 154 141 130
265 269 271 276 280 285 291 297 297 300 303 306 312 314 278 236 239 292 296 328 358 35 88 73 72 209 108 99 110 106 92 70 92 114 110 123 173 154 158 164 160 161 155 148 143
260 267 272 275 280 286 291 296 295 293 291 296 298 300 263 229 242 294 290 313 267 11 107 54 126 101 104 116 77 90 65 108 243 166 168 44 252 157 168 169 165 164 160 156 150
256 263 271 276 281 289 293 296 299 286 282 285 282 274 272 247 236 292 320 323 217 172 123 135 107 101 116 104 70 344 149 152 173 211 143 194 252 176 180 178 169 172 167 164 159
257 260 270 275 282 294 303 301 300 284 267 270 249 278 259 192 214 259 300 300 161 160 129 132 95 100 59 98 177 180 178 178 185 205 189 174 246 177 186 183 179 177 172 169 167
260 258 265 277 284 305 320 335 287 265 258 245 238 254 290 316 226 219 254 222 156 121 109 52 100 174 184 176 128 139 154 178 205 201 153 195 195 186 186 184 184 183 179 173 177
253 257 260 274 282 302 345 55 50 315 311 255 249 258 257 302 289 228 232 184 134 134 75 33 185 216 154 113 87 107 134 183 89 125 178 164 214 188 190 201 192 186 183 181 184
246 252 253 267 277 291 326 98 43 330 267 285 234 241 236 236 248 238 205 153 117 124 149 148 251 135 129 116 116 158 181 175 148 127 84 121 310 180 201 193 192 198 194 191 199
236 242 244 258 276 265 233 236 136 347 39 273 224 226 214 214 264 218 201 179 59 157 142 142 127 128 110 150 134 191 174 126 127 113 218 126 273 249 198 192 183 185 193 195 197
223 227 230 226 226 229 237 226 185 164 354 263 210 200 182 169 153 177 184 176 157 141 119 222 133 122 116 184 155 116 89 113 123 102 88 194 357 262 153 214 202 181 194 197 201
214 214 216 223 225 232 236 220 217 50 244 323 208 160 113 158 163 118 167 137 117 91 45 78 71 94 134 66 82 146 63 39 49 80 315 231 168 255 192 237 188 182 193 196 198
210 209 206 209 208 229 194 180 49 163 274 234 204 165 148 159 175 146 169 166 155 111 150 34 346 352 122 86 48 73 76 333 342 353 229 78 124 259 258 270 188 182 187 195 198
209 209 205 203 193 210 192 63 203 221 228 270 128 66 177 159 200 144 125 195 268 90 122 150 258 168 174 166 171 165 156 162 226 212 263 279 238 262 308 300 205 186 184 189 190
204 207 221 194 195 201 187 170 201 202 262 213 80 127 233 230 158 134 184 207 212 176 147 147 249 46 84 128 130 182 187 178 107 34 44 262 288 170 42 45 124 153 181 183 187
194 197 225 197 200 204 133 232 210 294 338 345 205 162 183 205 164 166 179 204 195 184 148 196 100 19 81 93 38 157 154 76 15 228 265 284 278 255 259 200 162 170 172 184 185
177 184 241 195 190 200 197 223 279 309 6 327 315 277 217 183 177 192 203 208 170 121 101 136 105 265 121 203 180 120 143 56 115 137 189 299 267 203 234 198 195 185 183 187 186
177 163 192 179 160 191 161 199 345 343 18 336 338 321 247 205 180 209 205 225 171 149 151 140 118 150 208 284 200 186 182 150 134 211 107 149 271 135 275 221 192 178 188 188 191
174 225 192 180 179 179 246 338 322 342 6 18 339 49 327 297 293 188 163 6 199 163 161 182 89 85 357 348 323 210 183 121 108 96 187 142 263 112 12 169 191 170 186 185 187
167 163 156 202 135 151 117 219 274 323 283 236 256 302 345 350 23 276 156 344 136 133 145 121 120 159 193 204 154 190 172 157 132 137 177 226 287 279 222 182 156 176 185 184 185
193 211 161 179 207 160 168 194 175 226 261 247 301 157 23 323 319 298 315 234 38 154 99 126 151 132 38 341 177 177 167 172 186 169 170 229 217 271 274 196 180 184 180 182 184
176 149 175 128 195 154 168 208 216 184 218 280 284 287 274 237 219 271 197 235 193 172 119 13 153 106 40 1 24 283 243 188 186 169 259 256 288 21 44 146 163 182 182 187 188
204 188 183 20 104 119 214 199 204 206 289 249 296 270 270 269 292 278 237 219 219 155 150 133 137 118 208 352 12 316 233 185 168 145 151 193 235 134 118 164 178 186 191 194 192